| time (UTC) | temp F | wind direction | speed MPH | gust MPH | rain 1hr in | rain 24hr in | rain mn in | humidity % | barometer mb |
| 20260505102022 | 41 | 324 | 3.0 | 11.0 | 0.01 | 0.19 | 0.02 | 91 | 1013.6 |
| 20260505101536 | 41 | 346 | 3.0 | 12.0 | 0.01 | 0.19 | 0.02 | 91 | 1013.5 |
| 20260505101020 | 41 | 344 | 4.0 | 13.0 | 0.00 | 0.18 | 0.01 | 91 | 1013.4 |
| 20260505100518 | 41 | 348 | 5.0 | 13.0 | 0.00 | 0.18 | 0.01 | 91 | 1013.4 |
| 20260505100036 | 42 | 346 | 5.0 | 13.0 | 0.00 | 0.18 | 0.01 | 91 | 1013.4 |
| 20260505095519 | 42 | 352 | 5.0 | 12.0 | 0.00 | 0.18 | 0.01 | 91 | 1013.2 |
| 20260505095018 | 42 | 301 | 5.0 | 13.0 | 0.00 | 0.18 | 0.01 | 91 | 1013.2 |
| 20260505094536 | 42 | 286 | 5.0 | 16.0 | 0.00 | 0.18 | 0.01 | 91 | 1013.0 |
| 20260505094022 | 42 | 328 | 5.0 | 16.0 | 0.00 | 0.18 | 0.01 | 91 | 1013.2 |
| 20260505093519 | 42 | 315 | 6.0 | 16.0 | 0.00 | 0.18 | 0.01 | 91 | 1013.1 |
| 20260505093036 | 42 | 4 | 4.0 | 14.0 | 0.00 | 0.18 | 0.01 | 90 | 1013.2 |
| 20260505092516 | 43 | 352 | 6.0 | 14.0 | 0.00 | 0.18 | 0.01 | 90 | 1013.2 |
| 20260505092017 | 43 | 341 | 5.0 | 11.0 | 0.00 | 0.18 | 0.01 | 90 | 1013.0 |
| 20260505091538 | 43 | 347 | 5.0 | 10.0 | 0.00 | 0.18 | 0.01 | 90 | 1013.0 |
| 20260505091018 | 43 | 330 | 4.0 | 10.0 | 0.00 | 0.18 | 0.01 | 90 | 1012.9 |
| 20260505090518 | 44 | 358 | 3.0 | 12.0 | 0.00 | 0.18 | 0.01 | 90 | 1012.8 |
| 20260505090048 | 44 | 345 | 5.0 | 12.0 | 0.00 | 0.18 | 0.01 | 89 | 1012.8 |
| 20260505085519 | 44 | 337 | 5.0 | 12.0 | 0.00 | 0.18 | 0.01 | 89 | 1012.8 |
| 20260505085019 | 45 | 340 | 4.0 | 10.0 | 0.00 | 0.18 | 0.01 | 89 | 1012.7 |
| 20260505084535 | 46 | 352 | 4.0 | 8.0 | 0.00 | 0.18 | 0.01 | 89 | 1012.6 |
| 20260505084018 | 47 | 359 | 3.0 | 8.0 | 0.00 | 0.18 | 0.01 | 90 | 1012.7 |
| 20260505083518 | 47 | 359 | 2.0 | 5.0 | 0.00 | 0.18 | 0.01 | 91 | 1012.6 |
| 20260505083044 | 47 | 345 | 2.0 | 5.0 | 0.00 | 0.18 | 0.01 | 92 | 1012.7 |
| 20260505082518 | 47 | 310 | 2.0 | 5.0 | 0.00 | 0.18 | 0.01 | 92 | 1012.8 |
| 20260505082019 | 47 | 349 | 3.0 | 5.0 | 0.00 | 0.18 | 0.01 | 92 | 1012.8 |
| 20260505081546 | 47 | 327 | 0.0 | 3.0 | 0.00 | 0.18 | 0.01 | 92 | 1012.8 |
| 20260505081023 | 47 | 0 | 0.0 | 0.0 | 0.00 | 0.18 | 0.01 | 92 | 1012.8 |
| 20260505080518 | 47 | 0 | 0.0 | 0.0 | 0.00 | 0.18 | 0.01 | 92 | 1012.9 |
| 20260505080039 | 47 | 0 | 0.0 | 0.0 | 0.00 | 0.18 | 0.01 | 92 | 1012.7 |
| 20260505075518 | 47 | 0 | 0.0 | 0.0 | 0.00 | 0.18 | 0.01 | 92 | 1012.5 |
| 20260505075018 | 47 | 0 | 0.0 | 0.0 | 0.00 | 0.18 | 0.01 | 92 | 1012.7 |
| 20260505074533 | 47 | 0 | 0.0 | 0.0 | 0.01 | 0.18 | 0.01 | 92 | 1012.7 |
| 20260505074019 | 47 | 0 | 0.0 | 0.0 | 0.01 | 0.18 | 0.01 | 92 | 1012.8 |
| 20260505073518 | 47 | 0 | 0.0 | 0.0 | 0.01 | 0.18 | 0.01 | 92 | 1012.8 |
| 20260505073038 | 47 | 0 | 0.0 | 0.0 | 0.01 | 0.18 | 0.01 | 92 | 1012.8 |
| 20260505072519 | 47 | 0 | 0.0 | 0.0 | 0.01 | 0.18 | 0.01 | 92 | 1012.9 |
| 20260505072019 | 47 | 0 | 0.0 | 0.0 | 0.01 | 0.18 | 0.01 | 92 | 1012.8 |
| 20260505071539 | 47 | 0 | 0.0 | 0.0 | 0.01 | 0.18 | 0.01 | 91 | 1012.9 |
| 20260505071019 | 47 | 0 | 0.0 | 0.0 | 0.01 | 0.18 | 0.01 | 91 | 1012.9 |
| 20260505070521 | 47 | 0 | 0.0 | 0.0 | 0.01 | 0.18 | 0.01 | 91 | 1013.1 |
| 20260505070044 | 47 | 0 | 0.0 | 0.0 | 0.01 | 0.18 | 0.01 | 91 | 1013.0 |
| 20260505065518 | 47 | 0 | 0.0 | 0.0 | 0.01 | 0.18 | 0.01 | 91 | 1013.0 |
| 20260505065018 | 47 | 0 | 0.0 | 0.0 | 0.01 | 0.18 | 0.01 | 92 | 1013.0 |
| 20260505064551 | 47 | 0 | 0.0 | 0.0 | 0.00 | 0.17 | 0.00 | 92 | 1013.0 |
| 20260505064020 | 47 | 0 | 0.0 | 0.0 | 0.00 | 0.17 | 0.00 | 91 | 1013.0 |
| 20260505063520 | 47 | 0 | 0.0 | 0.0 | 0.00 | 0.17 | 0.00 | 91 | 1013.0 |
| 20260505063034 | 47 | 0 | 0.0 | 0.0 | 0.00 | 0.17 | 0.00 | 91 | 1013.1 |
| 20260505062519 | 46 | 0 | 0.0 | 0.0 | 0.00 | 0.17 | 0.00 | 91 | 1013.0 |
| 20260505062019 | 46 | 0 | 0.0 | 0.0 | 0.00 | 0.17 | 0.00 | 91 | 1013.0 |
| 20260505061541 | 46 | 0 | 0.0 | 0.0 | 0.00 | 0.17 | 0.00 | 91 | 1013.1 |
| 20260505061019 | 46 | 0 | 0.0 | 0.0 | 0.00 | 0.17 | 0.00 | 91 | 1013.2 |
| 20260505060519 | 47 | 0 | 0.0 | 0.0 | 0.00 | 0.17 | 0.00 | 91 | 1013.2 |
| 20260505060036 | 46 | 0 | 0.0 | 0.0 | 0.00 | 0.17 | 0.00 | 91 | 1013.1 |
| 20260505055520 | 46 | 0 | 0.0 | 0.0 | 0.00 | 0.17 | 0.17 | 91 | 1013.1 |
| 20260505055020 | 46 | 0 | 0.0 | 0.0 | 0.00 | 0.17 | 0.17 | 91 | 1013.1 |
| 20260505054535 | 46 | 0 | 0.0 | 1.0 | 0.00 | 0.17 | 0.17 | 91 | 1013.3 |
| 20260505054021 | 46 | 0 | 0.0 | 1.0 | 0.00 | 0.17 | 0.17 | 91 | 1013.2 |
| 20260505053517 | 46 | 0 | 0.0 | 0.0 | 0.00 | 0.17 | 0.17 | 91 | 1013.0 |
| 20260505053034 | 46 | 0 | 0.0 | 0.0 | 0.00 | 0.17 | 0.17 | 91 | 1013.0 |
| 20260505052518 | 46 | 0 | 0.0 | 0.0 | 0.00 | 0.17 | 0.17 | 90 | 1013.0 |
| 20260505052018 | 46 | 0 | 0.0 | 0.0 | 0.00 | 0.17 | 0.17 | 90 | 1013.0 |
| 20260505051532 | 47 | 0 | 0.0 | 0.0 | 0.00 | 0.17 | 0.17 | 90 | 1013.0 |
| 20260505051018 | 47 | 0 | 0.0 | 0.0 | 0.00 | 0.17 | 0.17 | 90 | 1013.3 |
| 20260505050523 | 47 | 0 | 0.0 | 0.0 | 0.00 | 0.17 | 0.17 | 90 | 1013.4 |
| 20260505041535 | 47 | 0 | 0.0 | 2.0 | 0.11 | 0.17 | 0.17 | 89 | 1013.6 |
| 20260505041019 | 47 | 271 | 0.0 | 2.0 | 0.13 | 0.17 | 0.17 | 89 | 1013.8 |
| 20260505040518 | 47 | 294 | 0.0 | 2.0 | 0.15 | 0.17 | 0.17 | 89 | 1013.8 |
| 20260505040035 | 47 | 0 | 0.0 | 2.0 | 0.15 | 0.16 | 0.16 | 88 | 1013.5 |
| 20260505035519 | 47 | 281 | 0.0 | 3.0 | 0.14 | 0.15 | 0.15 | 88 | 1013.5 |
| 20260505035017 | 47 | 0 | 0.0 | 4.0 | 0.13 | 0.14 | 0.14 | 87 | 1013.6 |
| 20260505034539 | 47 | 328 | 0.0 | 6.0 | 0.12 | 0.13 | 0.13 | 87 | 1013.6 |
| 20260505034021 | 47 | 283 | 2.0 | 7.0 | 0.11 | 0.12 | 0.12 | 86 | 1013.7 |
| 20260505033522 | 48 | 307 | 3.0 | 9.0 | 0.10 | 0.11 | 0.11 | 85 | 1013.8 |
| 20260505033037 | 48 | 288 | 2.0 | 9.0 | 0.08 | 0.09 | 0.09 | 85 | 1014.0 |
| 20260505032517 | 49 | 310 | 3.0 | 6.0 | 0.07 | 0.08 | 0.08 | 84 | 1013.8 |
| 20260505032021 | 49 | 321 | 3.0 | 6.0 | 0.06 | 0.07 | 0.07 | 82 | 1013.6 |
| 20260505031535 | 50 | 311 | 3.0 | 6.0 | 0.05 | 0.06 | 0.06 | 80 | 1013.4 |
| 20260505031018 | 51 | 290 | 2.0 | 7.0 | 0.03 | 0.04 | 0.04 | 76 | 1013.3 |
| 20260505030520 | 52 | 294 | 3.0 | 7.0 | 0.01 | 0.02 | 0.02 | 71 | 1013.2 |
| 20260505030035 | 52 | 330 | 1.0 | 7.0 | 0.00 | 0.01 | 0.01 | 69 | 1013.0 |
| 20260505025518 | 52 | 280 | 2.0 | 7.0 | 0.00 | 0.01 | 0.01 | 69 | 1012.8 |
| 20260505025017 | 52 | 300 | 1.0 | 5.0 | 0.00 | 0.01 | 0.01 | 71 | 1012.5 |
| 20260505024544 | 52 | 293 | 1.0 | 5.0 | 0.00 | 0.01 | 0.01 | 69 | 1012.3 |
| 20260505024017 | 52 | 333 | 2.0 | 6.0 | 0.00 | 0.01 | 0.01 | 68 | 1012.2 |
| 20260505023517 | 52 | 339 | 3.0 | 7.0 | 0.00 | 0.01 | 0.01 | 69 | 1012.1 |
| 20260505023044 | 53 | 345 | 3.0 | 7.0 | 0.00 | 0.01 | 0.01 | 67 | 1012.0 |
| 20260505022523 | 53 | 345 | 3.0 | 8.0 | 0.00 | 0.01 | 0.01 | 65 | 1011.8 |
| 20260505022017 | 54 | 340 | 2.0 | 11.0 | 0.00 | 0.01 | 0.01 | 63 | 1011.7 |
| 20260505021543 | 54 | 347 | 3.0 | 11.0 | 0.00 | 0.01 | 0.01 | 61 | 1011.7 |
| 20260505021018 | 55 | 327 | 4.0 | 11.0 | 0.00 | 0.01 | 0.01 | 60 | 1011.7 |
| 20260505020517 | 55 | 0 | 0.0 | 0.0 | 0.00 | 0.01 | 0.01 | 60 | 1011.5 |
| 20260505020036 | 55 | 0 | 0.0 | 0.0 | 0.00 | 0.01 | 0.01 | 60 | 1011.7 |
| 20260505015518 | 55 | 0 | 0.0 | 0.0 | 0.00 | 0.01 | 0.01 | 61 | 1011.8 |
| 20260505015021 | 55 | 0 | 0.0 | 0.0 | 0.00 | 0.01 | 0.01 | 60 | 1011.7 |
| 20260505014541 | 55 | 0 | 0.0 | 0.0 | 0.00 | 0.01 | 0.01 | 61 | 1011.4 |
| 20260505014018 | 55 | 0 | 0.0 | 0.0 | 0.00 | 0.01 | 0.01 | 60 | 1011.2 |
| 20260505013517 | 55 | 0 | 0.0 | 0.0 | 0.00 | 0.01 | 0.01 | 61 | 1011.2 |
| 20260505013038 | 55 | 0 | 0.0 | 0.0 | 0.00 | 0.01 | 0.01 | 60 | 1011.2 |
| 20260505012517 | 55 | 0 | 0.0 | 0.0 | 0.00 | 0.01 | 0.01 | 60 | 1011.3 |
| 20260505012018 | 55 | 0 | 0.0 | 0.0 | 0.00 | 0.01 | 0.01 | 59 | 1011.4 |
| 20260505011538 | 55 | 0 | 0.0 | 1.0 | 0.00 | 0.01 | 0.01 | 60 | 1011.2 |
| 20260505011019 | 55 | 0 | 0.0 | 1.0 | 0.00 | 0.01 | 0.01 | 60 | 1011.2 |
| 20260505010519 | 55 | 0 | 0.0 | 1.0 | 0.00 | 0.01 | 0.01 | 59 | 1011.3 |
| 20260505010042 | 55 | 0 | 0.0 | 1.0 | 0.00 | 0.01 | 0.01 | 60 | 1011.2 |
| 20260505005517 | 55 | 0 | 0.0 | 2.0 | 0.00 | 0.01 | 0.01 | 62 | 1011.3 |
| 20260505005020 | 55 | 0 | 0.0 | 3.0 | 0.00 | 0.01 | 0.01 | 60 | 1011.3 |
| 20260505004536 | 56 | 0 | 0.0 | 6.0 | 0.00 | 0.01 | 0.01 | 59 | 1011.3 |
| 20260505004017 | 57 | 105 | 1.0 | 9.0 | 0.00 | 0.01 | 0.01 | 58 | 1011.4 |
| 20260505003519 | 58 | 295 | 2.0 | 9.0 | 0.00 | 0.01 | 0.01 | 53 | 1011.7 |
| 20260505003032 | 59 | 325 | 3.0 | 6.0 | 0.00 | 0.01 | 0.01 | 49 | 1011.7 |
| 20260505002518 | 59 | 294 | 1.0 | 5.0 | 0.00 | 0.01 | 0.01 | 50 | 1011.5 |
| 20260505002018 | 59 | 287 | 2.0 | 6.0 | 0.00 | 0.01 | 0.01 | 47 | 1011.5 |
| 20260505001540 | 59 | 66 | 1.0 | 6.0 | 0.00 | 0.01 | 0.01 | 49 | 1011.4 |
| 20260505001019 | 60 | 302 | 3.0 | 6.0 | 0.00 | 0.01 | 0.01 | 45 | 1011.2 |
| 20260505000517 | 60 | 330 | 3.0 | 6.0 | 0.00 | 0.01 | 0.01 | 42 | 1011.1 |
| 20260505000039 | 60 | 272 | 3.0 | 6.0 | 0.00 | 0.01 | 0.01 | 42 | 1010.9 |
| 20260504235515 | 60 | 288 | 2.0 | 6.0 | 0.00 | 0.01 | 0.01 | 42 | 1010.8 |
| 20260504235019 | 61 | 342 | 0.0 | 9.0 | 0.00 | 0.01 | 0.01 | 42 | 1010.5 |
| 20260504234538 | 61 | 12 | 3.0 | 9.0 | 0.00 | 0.01 | 0.01 | 41 | 1010.5 |
| 20260504234020 | 61 | 307 | 4.0 | 9.0 | 0.00 | 0.01 | 0.01 | 41 | 1010.3 |
| 20260504233518 | 61 | 304 | 3.0 | 10.0 | 0.00 | 0.01 | 0.01 | 40 | 1010.3 |
| 20260504233037 | 61 | 359 | 3.0 | 10.0 | 0.00 | 0.01 | 0.01 | 40 | 1010.2 |
| 20260504232518 | 61 | 66 | 5.0 | 11.0 | 0.00 | 0.01 | 0.01 | 40 | 1010.2 |
| 20260504232017 | 61 | 338 | 6.0 | 11.0 | 0.00 | 0.01 | 0.01 | 39 | 1010.2 |
| 20260504231553 | 62 | 359 | 4.0 | 13.0 | 0.00 | 0.01 | 0.01 | 39 | 1010.2 |
| 20260504231022 | 62 | 342 | 4.0 | 13.0 | 0.00 | 0.01 | 0.01 | 38 | 1010.2 |
| 20260504230518 | 63 | 348 | 2.0 | 15.0 | 0.00 | 0.01 | 0.01 | 38 | 1010.0 |
| 20260504230035 | 63 | 330 | 3.0 | 16.0 | 0.00 | 0.01 | 0.01 | 39 | 1009.9 |
| 20260504225517 | 63 | 345 | 7.0 | 16.0 | 0.00 | 0.01 | 0.01 | 38 | 1009.9 |
| 20260504225015 | 64 | 295 | 5.0 | 14.0 | 0.00 | 0.01 | 0.01 | 36 | 1009.7 |
| 20260504224540 | 63 | 309 | 6.0 | 14.0 | 0.00 | 0.01 | 0.01 | 36 | 1010.0 |
| 20260504224023 | 63 | 330 | 6.0 | 11.0 | 0.00 | 0.01 | 0.01 | 37 | 1010.0 |
| 20260504223521 | 62 | 323 | 5.0 | 17.0 | 0.00 | 0.01 | 0.01 | 38 | 1010.0 |
| 20260504223034 | 63 | 321 | 6.0 | 17.0 | 0.00 | 0.01 | 0.01 | 37 | 1010.0 |
| 20260504222518 | 63 | 339 | 4.0 | 10.0 | 0.00 | 0.01 | 0.01 | 37 | 1010.0 |
| 20260504222018 | 63 | 339 | 3.0 | 11.0 | 0.00 | 0.01 | 0.01 | 35 | 1010.1 |
| 20260504221538 | 63 | 319 | 2.0 | 11.0 | 0.00 | 0.01 | 0.01 | 35 | 1010.1 |
| 20260504221019 | 63 | 354 | 5.0 | 11.0 | 0.00 | 0.01 | 0.01 | 35 | 1010.0 |
| 20260504220518 | 63 | 25 | 5.0 | 11.0 | 0.00 | 0.01 | 0.01 | 35 | 1010.0 |
| 20260504220058 | 63 | 337 | 3.0 | 11.0 | 0.00 | 0.01 | 0.01 | 34 | 1009.6 |
| 20260504215518 | 63 | 354 | 5.0 | 17.0 | 0.00 | 0.01 | 0.01 | 34 | 1009.5 |
| 20260504215021 | 64 | 330 | 6.0 | 17.0 | 0.00 | 0.01 | 0.01 | 33 | 1009.3 |
| 20260504214534 | 66 | 325 | 6.0 | 17.0 | 0.00 | 0.01 | 0.01 | 31 | 1009.1 |
| 20260504214016 | 68 | 346 | 5.0 | 12.0 | 0.00 | 0.01 | 0.01 | 29 | 1008.8 |
| 20260504213519 | 69 | 79 | 2.0 | 9.0 | 0.00 | 0.01 | 0.01 | 24 | 1008.6 |
| 20260504213034 | 70 | 91 | 2.0 | 11.0 | 0.00 | 0.01 | 0.01 | 24 | 1008.5 |
| 20260504212518 | 70 | 132 | 4.0 | 11.0 | 0.00 | 0.01 | 0.01 | 24 | 1008.5 |
| 20260504212018 | 71 | 91 | 1.0 | 7.0 | 0.00 | 0.01 | 0.01 | 24 | 1008.7 |
| 20260504211547 | 71 | 302 | 2.0 | 7.0 | 0.00 | 0.01 | 0.01 | 26 | 1008.7 |
| 20260504211017 | 70 | 105 | 2.0 | 7.0 | 0.00 | 0.01 | 0.01 | 24 | 1008.7 |
| 20260504210517 | 71 | 89 | 1.0 | 7.0 | 0.00 | 0.01 | 0.01 | 25 | 1008.9 |
| 20260504210054 | 70 | 30 | 2.0 | 7.0 | 0.00 | 0.01 | 0.01 | 27 | 1009.0 |
| 20260504205518 | 69 | 110 | 2.0 | 7.0 | 0.00 | 0.01 | 0.01 | 28 | 1009.1 |
| 20260504205017 | 67 | 338 | 0.0 | 7.0 | 0.00 | 0.01 | 0.01 | 31 | 1009.1 |
| 20260504204541 | 67 | 0 | 0.0 | 5.0 | 0.00 | 0.01 | 0.01 | 33 | 1009.3 |
| 20260504204018 | 66 | 298 | 1.0 | 7.0 | 0.00 | 0.01 | 0.01 | 31 | 1009.5 |
| 20260504203518 | 66 | 310 | 2.0 | 7.0 | 0.00 | 0.01 | 0.01 | 34 | 1009.8 |
| 20260504203043 | 65 | 290 | 3.0 | 7.0 | 0.00 | 0.01 | 0.01 | 34 | 1009.9 |
| 20260504202519 | 65 | 305 | 1.0 | 5.0 | 0.00 | 0.01 | 0.01 | 34 | 1009.8 |
| 20260504202016 | 64 | 98 | 0.0 | 6.0 | 0.01 | 0.01 | 0.01 | 35 | 1010.0 |
| 20260504201546 | 63 | 51 | 2.0 | 6.0 | 0.01 | 0.01 | 0.01 | 37 | 1010.0 |
| 20260504201017 | 63 | 338 | 2.0 | 7.0 | 0.01 | 0.01 | 0.01 | 38 | 1010.0 |
| 20260504200517 | 63 | 318 | 2.0 | 7.0 | 0.01 | 0.01 | 0.01 | 38 | 1010.1 |
| 20260504200039 | 62 | 18 | 1.0 | 7.0 | 0.01 | 0.01 | 0.01 | 43 | 1010.0 |
| 20260504195518 | 61 | 51 | 1.0 | 4.0 | 0.01 | 0.01 | 0.01 | 45 | 1010.2 |
| 20260504195018 | 61 | 307 | 1.0 | 4.0 | 0.01 | 0.01 | 0.01 | 49 | 1010.4 |
| 20260504194558 | 61 | 345 | 1.0 | 7.0 | 0.01 | 0.01 | 0.01 | 47 | 1010.7 |
| 20260504194019 | 61 | 233 | 1.0 | 7.0 | 0.01 | 0.01 | 0.01 | 38 | 1010.9 |
| 20260504193518 | 61 | 0 | 0.0 | 5.0 | 0.01 | 0.01 | 0.01 | 44 | 1011.0 |
| 20260504193036 | 61 | 0 | 1.0 | 5.0 | 0.01 | 0.01 | 0.01 | 38 | 1011.1 |
| 20260504192517 | 61 | 222 | 0.0 | 12.0 | 0.01 | 0.01 | 0.01 | 46 | 1011.0 |
| 20260504192018 | 61 | 77 | 1.0 | 12.0 | 0.00 | 0.00 | 0.00 | 41 | 1011.0 |
| 20260504191542 | 62 | 105 | 4.0 | 18.0 | 0.00 | 0.00 | 0.00 | 38 | 1010.8 |
| 20260504191018 | 62 | 204 | 3.0 | 18.0 | 0.00 | 0.00 | 0.00 | 36 | 1010.6 |
| 20260504190520 | 62 | 331 | 8.0 | 18.0 | 0.00 | 0.00 | 0.00 | 39 | 1011.1 |
| 20260504190040 | 63 | 253 | 5.0 | 16.0 | 0.00 | 0.00 | 0.00 | 38 | 1010.4 |
| 20260504185521 | 65 | 315 | 8.0 | 16.0 | 0.00 | 0.00 | 0.00 | 36 | 1010.1 |
| 20260504185020 | 69 | 1 | 3.0 | 10.0 | 0.00 | 0.00 | 0.00 | 24 | 1009.8 |
| 20260504184539 | 69 | 51 | 1.0 | 6.0 | 0.00 | 0.00 | 0.00 | 22 | 1009.6 |
| 20260504184018 | 69 | 0 | 1.0 | 6.0 | 0.00 | 0.00 | 0.00 | 23 | 1009.5 |
| 20260504183521 | 70 | 14 | 2.0 | 9.0 | 0.00 | 0.00 | 0.00 | 23 | 1009.4 |
| 20260504183037 | 70 | 28 | 2.0 | 9.0 | 0.00 | 0.00 | 0.00 | 22 | 1009.4 |
| 20260504182518 | 71 | 83 | 2.0 | 10.0 | 0.00 | 0.00 | 0.00 | 22 | 1009.4 |
| 20260504182018 | 71 | 347 | 1.0 | 10.0 | 0.00 | 0.00 | 0.00 | 22 | 1009.4 |
| 20260504181543 | 72 | 38 | 3.0 | 10.0 | 0.00 | 0.00 | 0.00 | 21 | 1009.3 |
| 20260504181018 | 72 | 34 | 3.0 | 8.0 | 0.00 | 0.00 | 0.00 | 22 | 1009.5 |
| 20260504180518 | 72 | 290 | 3.0 | 6.0 | 0.00 | 0.00 | 0.00 | 22 | 1009.4 |
| 20260504180057 | 72 | 330 | 2.0 | 12.0 | 0.00 | 0.00 | 0.00 | 22 | 1009.5 |
| 20260504175517 | 72 | 341 | 4.0 | 12.0 | 0.00 | 0.00 | 0.00 | 22 | 1009.5 |
| 20260504175018 | 72 | 354 | 2.0 | 6.0 | 0.00 | 0.00 | 0.00 | 23 | 1009.6 |
| 20260504174535 | 72 | 58 | 2.0 | 5.0 | 0.00 | 0.00 | 0.00 | 23 | 1009.6 |
| 20260504174018 | 73 | 64 | 1.0 | 5.0 | 0.00 | 0.00 | 0.00 | 23 | 1009.8 |
| 20260504173520 | 73 | 63 | 1.0 | 9.0 | 0.00 | 0.00 | 0.00 | 22 | 1009.9 |
| 20260504173044 | 73 | 75 | 3.0 | 9.0 | 0.00 | 0.00 | 0.00 | 22 | 1010.0 |
| 20260504172518 | 72 | 330 | 0.0 | 5.0 | 0.00 | 0.00 | 0.00 | 23 | 1010.1 |
| 20260504172018 | 71 | 61 | 2.0 | 5.0 | 0.00 | 0.00 | 0.00 | 23 | 1010.2 |
| 20260504171539 | 71 | 49 | 0.0 | 5.0 | 0.00 | 0.00 | 0.00 | 23 | 1010.2 |
| 20260504171017 | 70 | 48 | 1.0 | 6.0 | 0.00 | 0.00 | 0.00 | 24 | 1010.2 |
| 20260504170520 | 70 | 255 | 2.0 | 6.0 | 0.00 | 0.00 | 0.00 | 23 | 1010.3 |
| 20260504151015 | 59 | 0 | 0.0 | 1.0 | 0.00 | 0.00 | 0.00 | 40 | 1011.2 |
| 20260504150516 | 58 | 0 | 0.0 | 1.0 | 0.00 | 0.00 | 0.00 | 41 | 1011.3 |
| 20260504141018 | 50 | 0 | 0.0 | 0.0 | 0.00 | 0.00 | 0.00 | 51 | 1011.4 |
| 20260504140518 | 50 | 0 | 0.0 | 1.0 | 0.00 | 0.00 | 0.00 | 50 | 1011.3 |
| 20260504130516 | 45 | 0 | 0.0 | 0.0 | 0.00 | 0.00 | 0.00 | 57 | 1011.2 |
| 20260504110521 | 44 | 0 | 0.0 | 1.0 | 0.00 | 0.00 | 0.00 | 55 | 1011.4 |